Retour au catalogue

QIANFAN-156

ActifCommunicationsPO
NORAD 69115·PAYLOAD·🇨🇳 China

Lancé May 17, 2026 depuis Wenchang Space Launch Site

Loading…

Prochains Passages (prochaines 24 heures)

TLE

FraisSource: Space-Track

Époque: Sep 14, 2026, 13:53 UTC

1 69115U 26108M   26257.57860127  .00000106  00000-0  14551-3 0  9993
2 69115  89.0205  13.0958 0001869 107.1576 252.9780 13.51022663 16532

Suivez QIANFAN-156 en temps réel avec AllMySat

Download on the App Store